TimeCST,TemperatureF,Dew PointF,Humidity,Sea Level PressureIn,VisibilityMPH,Wind Direction,Wind SpeedMPH,Gust SpeedMPH,PrecipitationIn,Events,Conditions,WindDirDegrees,DateUTC
12:56 AM,24.1,12.9,62,30.40,-9999.0,NNE,11.5,-,N/A,,Unknown,20,2013-01-21 06:56:00
1:56 AM,21.9,12.9,68,30.41,-9999.0,North,6.9,-,N/A,,Unknown,10,2013-01-21 07:56:00
2:56 AM,21.0,10.0,63,30.43,-9999.0,North,6.9,-,N/A,,Unknown,10,2013-01-21 08:56:00
3:56 AM,18.0,10.0,71,30.43,-9999.0,Calm,Calm,-,N/A,,Unknown,0,2013-01-21 09:56:00
4:56 AM,17.1,10.0,74,30.42,-9999.0,Calm,Calm,-,N/A,,Unknown,0,2013-01-21 10:56:00
5:56 AM,16.0,10.9,81,30.43,-9999.0,Calm,Calm,-,N/A,,Unknown,0,2013-01-21 11:56:00
6:56 AM,-9999,-9999,N/A,30.45,-9999.0,Calm,Calm,-,N/A,,Unknown,0,2013-01-21 12:56:00
7:56 AM,15.1,10.9,84,30.46,-9999.0,Calm,Calm,-,N/A,,Unknown,0,2013-01-21 13:56:00
8:56 AM,-9999,-9999,N/A,30.47,-9999.0,NNW,3.5,-,N/A,,Unknown,330,2013-01-21 14:56:00
9:56 AM,-9999,-9999,N/A,30.48,-9999.0,Calm,Calm,-,N/A,,Unknown,0,2013-01-21 15:56:00
10:56 AM,30.0,10.9,45,30.47,-9999.0,Variable,3.5,-,N/A,,Unknown,0,2013-01-21 16:56:00
11:56 AM,32.0,10.0,40,30.44,-9999.0,SSW,9.2,-,N/A,,Unknown,200,2013-01-21 17:56:00
12:56 PM,34.0,9.0,35,30.40,-9999.0,South,9.2,-,N/A,,Unknown,190,2013-01-21 18:56:00
1:56 PM,36.0,10.0,34,30.35,-9999.0,South,11.5,-,N/A,,Unknown,190,2013-01-21 19:56:00
2:56 PM,37.0,10.0,33,30.34,-9999.0,South,6.9,-,N/A,,Unknown,170,2013-01-21 20:56:00
3:56 PM,39.0,10.9,32,30.31,-9999.0,South,10.4,-,N/A,,Unknown,190,2013-01-21 21:56:00
4:56 PM,37.9,10.9,33,30.28,-9999.0,South,11.5,-,N/A,,Unknown,180,2013-01-21 22:56:00
5:56 PM,34.0,10.9,38,30.29,-9999.0,SSE,5.8,-,N/A,,Unknown,150,2013-01-21 23:56:00
6:56 PM,32.0,10.9,42,30.31,-9999.0,ESE,5.8,-,N/A,,Unknown,120,2013-01-22 00:56:00
7:56 PM,30.0,10.9,45,30.31,-9999.0,SE,8.1,-,N/A,,Unknown,130,2013-01-22 01:56:00
8:56 PM,28.9,10.9,47,30.30,-9999.0,SE,8.1,-,N/A,,Unknown,140,2013-01-22 02:56:00
9:56 PM,-9999,-9999,N/A,30.31,-9999.0,ESE,6.9,-,N/A,,Unknown,110,2013-01-22 03:56:00
10:56 PM,-9999,-9999,N/A,30.30,-9999.0,ESE,5.8,-,N/A,,Unknown,110,2013-01-22 04:56:00
11:56 PM,-9999,-9999,N/A,30.30,-9999.0,ESE,5.8,-,N/A,,Unknown,120,2013-01-22 05:56:00